Terminal Aerodrome Forecast
Issued by NWS

Home | Current Version | Previous Version | Text Only | Print | Product List | Glossary On
Versions: 1 2 3 4 5 6 7 8 9 10 11 12 13 14 15 16 17 18 19 20 21 22 23 24 25 26 27 28 29 30 31 32 33 34 35 36 37 38 39 40 41 42 43 44 45 46
000
FTUS45 KBOU 230123 AAA
TAFBJC
TAF AMD
KBJC 230123Z 2301/2324 31008KT P6SM VCSH SCT040 BKN080
     FM230500 32014G22KT P6SM SCT060 BKN090
     FM231000 33018G25KT P6SM BKN060 BKN140
     FM231600 35015KT P6SM SCT080 BKN140=

USA.gov is the U.S. government's official web portal to all federal, state and local government web resources and services.